Location: Helsinki
(60.1699°N, 24.9384°E)
Time: 19:47:32
(UTC+02:00)

Transit 2A Rocket - Pass Details

Date: 21 September 2023
Orbit: 593 x 903 km, 66.7° (Epoch: 28 November)

Event Time Altitude Azimuth Distance (km) Brightness Sun altitude
Rises 01:58:20 0° 308° (NW) 3,011 8.4 -28.3°
Reaches altitude 10° 02:01:09 10° 293° (WNW) 2,045 7.3 -28.2°
Enters shadow 02:01:10 10° 293° (WNW) 2,042 7.3 -28.2°
Maximum altitude 02:04:32 21° 245° (WSW) 1,415 - -28.1°
Drops below altitude 10° 02:07:47 10° 196° (SSW) 1,952 - -28.0°
Sets 02:10:25 0° 180° (S) 2,832 - -27.9°
